,,,PA_Meas_PMT16A,,PR_Meas_QMR101_102,,RH_Meas_QMH101,,SR_Meas_QMS101,,TA_Meas_QMH101,,GenWind,,GenWind,
date,time,status,PA,status,PR,status,RH,status,SR,status,TA,status,DirAvg,status,SpdAvg,
2008-11-08, 00:00:04,VALID,1007.08,VALID,0,VALID,93.751,VALID,0,VALID,25.0174,VALID,333,VALID,0,
2008-11-08, 00:01:04,VALID,1007.06,VALID,0,VALID,93.7205,VALID,0,VALID,25.0174,VALID,333,VALID,0,
2008-11-08, 00:02:04,VALID,1007.08,VALID,0,VALID,93.7053,VALID,0,VALID,25.0583,VALID,333,VALID,0,
2008-11-08, 00:03:04,VALID,1007.11,VALID,0,VALID,93.7053,VALID,0,VALID,25.0388,VALID,333,VALID,0,
2008-11-08, 00:04:04,VALID,1007.1,VALID,0,VALID,93.6671,VALID,0,VALID,25.0193,VALID,333,VALID,0,
2008-11-08, 00:05:04,VALID,1007.1,VALID,0,VALID,93.6366,VALID,0,VALID,25.0583,VALID,333,VALID,0,
2008-11-08, 00:06:04,VALID,1007.06,VALID,0,VALID,93.5909,VALID,0,VALID,25.0388,VALID,333,VALID,0,
2008-11-08, 00:07:04,VALID,1007.06,VALID,0,VALID,93.5375,VALID,0,VALID,25.0193,VALID,333,VALID,0,
2008-11-08, 00:08:04,VALID,1007.06,VALID,0,VALID,93.5222,VALID,0,VALID,25.0193,VALID,333,VALID,0,
2008-11-08, 00:09:04,VALID,1007.03,VALID,0,VALID,93.5146,VALID,0,VALID,24.9998,VALID,333,VALID,0,
2008-11-08, 00:10:04,VALID,1007.01,VALID,0,VALID,93.507,VALID,0,VALID,24.9998,VALID,333,VALID,0,
2008-11-08, 00:11:04,VALID,1007.02,VALID,0,VALID,93.5375,VALID,0,VALID,25.0193,VALID,333,VALID,0,
2008-11-08, 00:12:04,VALID,1006.97,VALID,0,VALID,93.5985,VALID,0,VALID,25.0193,VALID,333,VALID,0,
2008-11-08, 00:13:04,VALID,1006.98,VALID,0,VALID,93.5985,VALID,0,VALID,24.9998,VALID,333,VALID,0,
2008-11-08, 00:14:04,VALID,1006.96,VALID,0,VALID,93.6137,VALID,0,VALID,24.9803,VALID,333,VALID,0,
2008-11-08, 00:15:04,VALID,1006.94,VALID,0,VALID,93.6519,VALID,0,VALID,24.9803,VALID,333,VALID,0,
2008-11-08, 00:16:04,VALID,1006.95,VALID,0,VALID,93.6595,VALID,0,VALID,24.9803,VALID,333,VALID,0,
2008-11-08, 00:17:04,VALID,1006.95,VALID,0,VALID,93.6748,VALID,0,VALID,24.9608,VALID,333,VALID,0,
2008-11-08, 00:18:04,VALID,1006.94,VALID,0,VALID,93.6595,VALID,0,VALID,24.9608,VALID,333,VALID,0,
2008-11-08, 00:19:04,VALID,1006.94,VALID,0,VALID,93.6595,VALID,0,VALID,24.9608,VALID,333,VALID,0,
2008-11-08, 00:20:04,VALID,1006.93,VALID,0,VALID,93.6976,VALID,0,VALID,24.9608,VALID,333,VALID,0,
2008-11-08, 00:21:04,VALID,1006.95,VALID,0,VALID,93.7053,VALID,0,VALID,24.9608,VALID,333,VALID,0,
2008-11-08, 00:22:04,VALID,1006.92,VALID,0,VALID,93.7434,VALID,0,VALID,25.0017,VALID,333,VALID,0,
2008-11-08, 00:23:04,VALID,1006.9,VALID,0,VALID,93.7891,VALID,0,VALID,24.9803,VALID,333,VALID,0,
2008-11-08, 00:24:04,VALID,1006.91,VALID,0,VALID,93.812,VALID,0,VALID,24.9803,VALID,333,VALID,0,
2008-11-08, 00:25:04,VALID,1006.92,VALID,0,VALID,93.8273,VALID,0,VALID,24.9822,VALID,333,VALID,0,
2008-11-08, 00:26:04,VALID,1006.9,VALID,0,VALID,93.812,VALID,0,VALID,24.9803,VALID,333,VALID,0,
2008-11-08, 00:27:04,VALID,1006.9,VALID,0,VALID,93.7891,VALID,0,VALID,25.0017,VALID,333,VALID,0,
2008-11-08, 00:28:04,VALID,1006.9,VALID,0,VALID,93.7739,VALID,0,VALID,24.9608,VALID,333,VALID,0,
2008-11-08, 00:29:04,VALID,1006.89,VALID,0,VALID,93.751,VALID,0,VALID,24.9803,VALID,333,VALID,0,
2008-11-08, 00:30:04,VALID,1006.85,VALID,0,VALID,93.7053,VALID,0,VALID,24.9803,VALID,333,VALID,0,
2008-11-08, 00:31:04,VALID,1006.86,VALID,0,VALID,93.6519,VALID,0,VALID,24.9803,VALID,333,VALID,0,
2008-11-08, 00:32:04,VALID,1006.87,VALID,0,VALID,93.6442,VALID,0,VALID,24.9803,VALID,333,VALID,0,
2008-11-08, 00:33:04,VALID,1006.84,VALID,0,VALID,93.6366,VALID,0,VALID,24.9803,VALID,333,VALID,0,
2008-11-08, 00:34:04,VALID,1006.85,VALID,0,VALID,93.6519,VALID,0,VALID,24.9803,VALID,333,VALID,0,
2008-11-08, 00:35:04,VALID,1006.83,VALID,0,VALID,93.7129,VALID,0,VALID,24.9803,VALID,333,VALID,0,
2008-11-08, 00:36:04,VALID,1006.83,VALID,0,VALID,93.7358,VALID,0,VALID,24.9998,VALID,333,VALID,0,
2008-11-08, 00:37:04,VALID,1006.8,VALID,0,VALID,93.751,VALID,0,VALID,24.9803,VALID,333,VALID,0,
2008-11-08, 00:38:04,VALID,1006.79,VALID,0,VALID,93.7129,VALID,0.105969,VALID,24.9979,VALID,333,VALID,0,
2008-11-08, 00:39:04,VALID,1006.77,VALID,0,VALID,93.6976,VALID,0,VALID,24.9784,VALID,333,VALID,0,
2008-11-08, 00:40:04,VALID,1006.76,VALID,0,VALID,93.6976,VALID,0.105969,VALID,24.9784,VALID,333,VALID,0,
2008-11-08, 00:41:04,VALID,1006.75,VALID,0,VALID,93.6976,VALID,0.105969,VALID,24.9979,VALID,333,VALID,0,
2008-11-08, 00:42:04,VALID,1006.74,VALID,0,VALID,93.7205,VALID,0,VALID,24.9979,VALID,333,VALID,0,
2008-11-08, 00:43:04,VALID,1006.73,VALID,0,VALID,93.7205,VALID,0.105969,VALID,24.9979,VALID,333,VALID,0,
2008-11-08, 00:44:04,VALID,1006.72,VALID,0,VALID,93.7205,VALID,0.105969,VALID,24.9784,VALID,333,VALID,0,
2008-11-08, 00:45:04,VALID,1006.72,VALID,0,VALID,93.69,VALID,0.105969,VALID,24.9979,VALID,333,VALID,0,
2008-11-08, 00:46:04,VALID,1006.71,VALID,0,VALID,93.6976,VALID,0,VALID,24.9979,VALID,333,VALID,0,
2008-11-08, 00:47:04,VALID,1006.68,VALID,0,VALID,93.6671,VALID,0.105969,VALID,24.9979,VALID,333,VALID,0,
2008-11-08, 00:48:04,VALID,1006.67,VALID,0,VALID,93.6442,VALID,0.105969,VALID,24.9784,VALID,333,VALID,0,
2008-11-08, 00:49:04,VALID,1006.66,VALID,0,VALID,93.629,VALID,0.105969,VALID,24.9784,VALID,333,VALID,0,
2008-11-08, 00:50:04,VALID,1006.65,VALID,0,VALID,93.5832,VALID,0.105969,VALID,24.9784,VALID,333,VALID,0,
2008-11-08, 00:51:04,VALID,1006.63,VALID,0,VALID,93.5756,VALID,0.105969,VALID,24.9589,VALID,333,VALID,0,
2008-11-08, 00:52:04,VALID,1006.61,VALID,0,VALID,93.5527,VALID,0.105969,VALID,24.9589,VALID,333,VALID,0,
2008-11-08, 00:53:04,VALID,1006.58,VALID,0,VALID,93.5527,VALID,0.105969,VALID,24.9589,VALID,333,VALID,0,
2008-11-08, 00:54:04,VALID,1006.59,VALID,0,VALID,93.4994,VALID,0,VALID,24.9394,VALID,333,VALID,0,
2008-11-08, 00:55:04,VALID,1006.58,VALID,0,VALID,93.4994,VALID,0.105969,VALID,24.9784,VALID,333,VALID,0,
2008-11-08, 00:56:04,VALID,1006.58,VALID,0,VALID,93.5222,VALID,0,VALID,24.9394,VALID,333,VALID,0,
2008-11-08, 00:57:04,VALID,1006.6,VALID,0,VALID,93.5299,VALID,0.105969,VALID,24.9394,VALID,333,VALID,0,
2008-11-08, 00:58:04,VALID,1006.59,VALID,0,VALID,93.5527,VALID,0.105969,VALID,24.9394,VALID,333,VALID,0,
2008-11-08, 00:59:04,VALID,1006.61,VALID,0,VALID,93.5604,VALID,0,VALID,24.8985,VALID,333,VALID,0,
2008-11-08, 01:00:04,VALID,1006.62,VALID,0,VALID,93.568,VALID,0.105969,VALID,24.9199,VALID,333,VALID,0,
2008-11-08, 01:01:04,VALID,1006.63,VALID,0,VALID,93.5451,VALID,0.105969,VALID,24.9199,VALID,333,VALID,0,
2008-11-08, 01:02:04,VALID,1006.63,VALID,0,VALID,93.5527,VALID,0.105969,VALID,24.9199,VALID,333,VALID,0,
2008-11-08, 01:03:04,VALID,1006.62,VALID,0,VALID,93.507,VALID,0.105969,VALID,24.8809,VALID,333,VALID,0,
2008-11-08, 01:04:04,VALID,1006.62,VALID,0,VALID,93.507,VALID,0,VALID,24.9023,VALID,333,VALID,0,
2008-11-08, 01:05:04,VALID,1006.65,VALID,0,VALID,93.5222,VALID,0,VALID,24.8809,VALID,333,VALID,0,
2008-11-08, 01:06:04,VALID,1006.6,VALID,0,VALID,93.5527,VALID,0.105969,VALID,24.8809,VALID,333,VALID,0,
2008-11-08, 01:07:04,VALID,1006.6,VALID,0,VALID,93.5832,VALID,0.105969,VALID,24.8401,VALID,333,VALID,0,
2008-11-08, 01:08:04,VALID,1006.58,VALID,0,VALID,93.5604,VALID,0,VALID,24.8633,VALID,333,VALID,0,
2008-11-08, 01:09:04,VALID,1006.59,VALID,0,VALID,93.5832,VALID,0,VALID,24.8633,VALID,333,VALID,0,
2008-11-08, 01:10:04,VALID,1006.6,VALID,0,VALID,93.5909,VALID,0,VALID,24.8438,VALID,333,VALID,0,
2008-11-08, 01:11:04,VALID,1006.6,VALID,0,VALID,93.5909,VALID,0,VALID,24.8438,VALID,333,VALID,0,
2008-11-08, 01:12:04,VALID,1006.56,VALID,0,VALID,93.6061,VALID,0,VALID,24.8225,VALID,333,VALID,0,
2008-11-08, 01:13:04,VALID,1006.62,VALID,0,VALID,93.6442,VALID,0,VALID,24.8244,VALID,333,VALID,0,
2008-11-08, 01:14:04,VALID,1006.6,VALID,0,VALID,93.6671,VALID,0,VALID,24.8244,VALID,333,VALID,0,
2008-11-08, 01:15:04,VALID,1006.62,VALID,0,VALID,93.6748,VALID,0,VALID,24.7835,VALID,333,VALID,0,
2008-11-08, 01:16:04,VALID,1006.62,VALID,0,VALID,93.6748,VALID,0,VALID,24.7659,VALID,333,VALID,0.335156,
2008-11-08, 01:17:04,VALID,1006.6,VALID,0,VALID,93.6595,VALID,0,VALID,24.7854,VALID,333,VALID,0.267578,
2008-11-08, 01:18:04,VALID,1006.63,VALID,0,VALID,93.6595,VALID,0,VALID,24.7659,VALID,333,VALID,0.332812,
2008-11-08, 01:19:04,VALID,1006.64,VALID,0,VALID,93.6442,VALID,0,VALID,24.7659,VALID,333,VALID,0.283594,
2008-11-08, 01:20:04,VALID,1006.65,VALID,0,VALID,93.6748,VALID,0,VALID,24.7659,VALID,333,VALID,0.202734,
2008-11-08, 01:21:04,VALID,1006.68,VALID,0,VALID,93.6976,VALID,0,VALID,24.7464,VALID,333,VALID,0,
2008-11-08, 01:22:04,VALID,1006.69,VALID,0,VALID,93.751,VALID,0,VALID,24.7464,VALID,333,VALID,0.0433594,
2008-11-08, 01:23:04,VALID,1006.7,VALID,0,VALID,93.7434,VALID,0,VALID,24.7269,VALID,333,VALID,0.233984,
2008-11-08, 01:24:04,VALID,1006.72,VALID,0,VALID,93.7739,VALID,0,VALID,24.7074,VALID,14,VALID,0.511328,
2008-11-08, 01:25:04,VALID,1006.7,VALID,0,VALID,93.812,VALID,0,VALID,24.7074,VALID,23,VALID,0.407422,
2008-11-08, 01:26:04,VALID,1006.73,VALID,0,VALID,93.8349,VALID,0,VALID,24.7074,VALID,23,VALID,0.341797,
2008-11-08, 01:27:04,VALID,1006.75,VALID,0,VALID,93.873,VALID,0,VALID,24.7269,VALID,23,VALID,0.0675781,
2008-11-08, 01:28:04,VALID,1006.74,VALID,0,VALID,93.9112,VALID,0,VALID,24.7269,VALID,23,VALID,0.224219,
2008-11-08, 01:29:04,VALID,1006.73,VALID,0,VALID,93.9035,VALID,0,VALID,24.7269,VALID,23,VALID,0.202734,
2008-11-08, 01:30:04,VALID,1006.7,VALID,0,VALID,93.9264,VALID,0,VALID,24.7464,VALID,23,VALID,0.142969,
2008-11-08, 01:31:04,VALID,1006.7,VALID,0,VALID,93.9493,VALID,0,VALID,24.7464,VALID,32,VALID,0,
2008-11-08, 01:32:04,VALID,1006.7,VALID,0,VALID,93.9417,VALID,0,VALID,24.7659,VALID,34,VALID,0,
2008-11-08, 01:33:04,VALID,1006.69,VALID,0,VALID,93.9112,VALID,0,VALID,24.7854,VALID,34,VALID,0,
2008-11-08, 01:34:04,VALID,1006.69,VALID,0,VALID,93.8883,VALID,0,VALID,24.8244,VALID,34,VALID,0,
2008-11-08, 01:35:04,VALID,1006.69,VALID,0,VALID,93.873,VALID,0,VALID,24.8049,VALID,34,VALID,0,
2008-11-08, 01:36:04,VALID,1006.69,VALID,0,VALID,93.7968,VALID,0,VALID,24.8049,VALID,34,VALID,0,
2008-11-08, 01:37:04,VALID,1006.66,VALID,0,VALID,93.7281,VALID,0,VALID,24.8244,VALID,34,VALID,0,
2008-11-08, 01:38:04,VALID,1006.66,VALID,0,VALID,93.7053,VALID,0,VALID,24.8438,VALID,34,VALID,0,
2008-11-08, 01:39:04,VALID,1006.65,VALID,0,VALID,93.6214,VALID,0,VALID,24.8438,VALID,34,VALID,0,
2008-11-08, 01:40:04,VALID,1006.61,VALID,0,VALID,93.5909,VALID,0,VALID,24.8633,VALID,34,VALID,0,
2008-11-08, 01:41:04,VALID,1006.6,VALID,0,VALID,93.568,VALID,0,VALID,24.8633,VALID,34,VALID,0,
2008-11-08, 01:42:04,VALID,1006.58,VALID,0,VALID,93.5756,VALID,0,VALID,24.8438,VALID,34,VALID,0,
2008-11-08, 01:43:04,VALID,1006.6,VALID,0,VALID,93.5985,VALID,0,VALID,24.8438,VALID,34,VALID,0,
2008-11-08, 01:44:04,VALID,1006.58,VALID,0,VALID,93.5756,VALID,0,VALID,24.8244,VALID,34,VALID,0,
2008-11-08, 01:45:04,VALID,1006.58,VALID,0,VALID,93.5756,VALID,0,VALID,24.8262,VALID,34,VALID,0,
2008-11-08, 01:46:04,VALID,1006.57,VALID,0,VALID,93.5527,VALID,0,VALID,24.8049,VALID,34,VALID,0,
2008-11-08, 01:47:04,VALID,1006.54,VALID,0,VALID,93.5604,VALID,0,VALID,24.8049,VALID,34,VALID,0.297266,
2008-11-08, 01:48:04,VALID,1006.55,VALID,0,VALID,93.5832,VALID,0,VALID,24.7835,VALID,34,VALID,0.0617188,
2008-11-08, 01:49:04,VALID,1006.52,VALID,0,VALID,93.5756,VALID,0,VALID,24.8049,VALID,34,VALID,0,
2008-11-08, 01:50:04,VALID,1006.52,VALID,0,VALID,93.5832,VALID,0,VALID,24.8049,VALID,34,VALID,0,
2008-11-08, 01:51:04,VALID,1006.51,VALID,0,VALID,93.5985,VALID,0,VALID,24.803,VALID,34,VALID,0,
2008-11-08, 01:52:04,VALID,1006.47,VALID,0,VALID,93.5985,VALID,0,VALID,24.803,VALID,34,VALID,0,
2008-11-08, 01:53:04,VALID,1006.46,VALID,0,VALID,93.6214,VALID,0,VALID,24.8244,VALID,34,VALID,0,
2008-11-08, 01:54:04,VALID,1006.41,VALID,0,VALID,93.629,VALID,0,VALID,24.7835,VALID,34,VALID,0,
2008-11-08, 01:55:04,VALID,1006.44,VALID,0,VALID,93.6366,VALID,0,VALID,24.8244,VALID,34,VALID,0,
2008-11-08, 01:56:04,VALID,1006.4,VALID,0,VALID,93.6214,VALID,0,VALID,24.8244,VALID,34,VALID,0,
2008-11-08, 01:57:04,VALID,1006.38,VALID,0,VALID,93.5909,VALID,0,VALID,24.803,VALID,34,VALID,0,
2008-11-08, 01:58:04,VALID,1006.36,VALID,0,VALID,93.5527,VALID,0,VALID,24.8438,VALID,34,VALID,0,
2008-11-08, 01:59:04,VALID,1006.34,VALID,0,VALID,93.5527,VALID,0,VALID,24.803,VALID,34,VALID,0,
2008-11-08, 02:00:04,VALID,1006.31,VALID,0,VALID,93.5756,VALID,0,VALID,24.8438,VALID,34,VALID,0,
2008-11-08, 02:01:04,VALID,1006.31,VALID,0,VALID,93.6214,VALID,0,VALID,24.8438,VALID,34,VALID,0,
2008-11-08, 02:02:04,VALID,1006.31,VALID,0,VALID,93.629,VALID,0,VALID,24.8438,VALID,34,VALID,0,
2008-11-08, 02:03:04,VALID,1006.28,VALID,0,VALID,93.6137,VALID,0,VALID,24.8633,VALID,34,VALID,0,
2008-11-08, 02:04:04,VALID,1006.26,VALID,0,VALID,93.6214,VALID,0,VALID,24.8633,VALID,34,VALID,0,
2008-11-08, 02:05:04,VALID,1006.25,VALID,0,VALID,93.5832,VALID,0,VALID,24.8633,VALID,34,VALID,0,
2008-11-08, 02:06:04,VALID,1006.23,VALID,0,VALID,93.5451,VALID,0.105969,VALID,24.842,VALID,34,VALID,0,
2008-11-08, 02:07:04,VALID,1006.21,VALID,0,VALID,93.5375,VALID,0,VALID,24.8633,VALID,34,VALID,0,
2008-11-08, 02:08:04,VALID,1006.22,VALID,0,VALID,93.5222,VALID,0,VALID,24.8615,VALID,34,VALID,0,
2008-11-08, 02:09:04,VALID,1006.19,VALID,0,VALID,93.4917,VALID,0,VALID,24.8225,VALID,34,VALID,0,
2008-11-08, 02:10:04,VALID,1006.22,VALID,0,VALID,93.4765,VALID,0,VALID,24.842,VALID,34,VALID,0,
2008-11-08, 02:11:04,VALID,1006.2,VALID,0,VALID,93.4994,VALID,0,VALID,24.8438,VALID,34,VALID,0,
2008-11-08, 02:12:04,VALID,1006.23,VALID,0,VALID,93.5146,VALID,0,VALID,24.8438,VALID,34,VALID,0,
2008-11-08, 02:13:04,VALID,1006.21,VALID,0,VALID,93.5451,VALID,0,VALID,24.842,VALID,34,VALID,0,
2008-11-08, 02:14:04,VALID,1006.19,VALID,0,VALID,93.5222,VALID,0,VALID,24.8225,VALID,34,VALID,0,
2008-11-08, 02:15:04,VALID,1006.2,VALID,0,VALID,93.5375,VALID,0,VALID,24.8438,VALID,34,VALID,0,
2008-11-08, 02:16:04,VALID,1006.18,VALID,0,VALID,93.5222,VALID,0,VALID,24.8438,VALID,34,VALID,0,
2008-11-08, 02:17:04,VALID,1006.19,VALID,0,VALID,93.5909,VALID,0,VALID,24.8438,VALID,34,VALID,0,
2008-11-08, 02:18:04,VALID,1006.17,VALID,0,VALID,93.6061,VALID,0,VALID,24.8615,VALID,34,VALID,0,
2008-11-08, 02:19:04,VALID,1006.15,VALID,0,VALID,93.6214,VALID,0,VALID,24.8438,VALID,34,VALID,0,
2008-11-08, 02:20:04,VALID,1006.16,VALID,0,VALID,93.6366,VALID,0,VALID,24.8438,VALID,34,VALID,0,
2008-11-08, 02:21:04,VALID,1006.16,VALID,0,VALID,93.6366,VALID,0,VALID,24.8438,VALID,34,VALID,0,
2008-11-08, 02:22:04,VALID,1006.16,VALID,0,VALID,93.6519,VALID,0,VALID,24.8438,VALID,34,VALID,0,
2008-11-08, 02:23:04,VALID,1006.19,VALID,0,VALID,93.6366,VALID,0,VALID,24.8225,VALID,34,VALID,0,
2008-11-08, 02:24:04,VALID,1006.18,VALID,0,VALID,93.6137,VALID,0,VALID,24.803,VALID,34,VALID,0,
2008-11-08, 02:25:04,VALID,1006.18,VALID,0,VALID,93.5909,VALID,0,VALID,24.8049,VALID,33,VALID,0,
2008-11-08, 02:26:04,VALID,1006.17,VALID,0,VALID,93.5909,VALID,0,VALID,24.7854,VALID,27,VALID,0,
2008-11-08, 02:27:04,VALID,1006.2,VALID,0,VALID,93.6137,VALID,0,VALID,24.7464,VALID,27,VALID,0,
2008-11-08, 02:28:04,VALID,1006.2,VALID,0,VALID,93.6442,VALID,0,VALID,24.6879,VALID,27,VALID,0,
2008-11-08, 02:29:04,VALID,1006.24,VALID,0,VALID,93.6824,VALID,0,VALID,24.6471,VALID,27,VALID,0,
2008-11-08, 02:30:04,VALID,1006.26,VALID,0,VALID,93.6824,VALID,0,VALID,24.6684,VALID,27,VALID,0,
2008-11-08, 02:31:04,VALID,1006.27,VALID,0,VALID,93.7281,VALID,0,VALID,24.5886,VALID,25,VALID,0,
2008-11-08, 02:32:04,VALID,1006.31,VALID,0,VALID,93.812,VALID,0,VALID,24.5691,VALID,25,VALID,0,
2008-11-08, 02:33:04,VALID,1006.29,VALID,0,VALID,93.8578,VALID,0,VALID,24.5691,VALID,23,VALID,0,
2008-11-08, 02:34:04,VALID,1006.3,VALID,0,VALID,93.8807,VALID,0,VALID,24.571,VALID,23,VALID,0,
2008-11-08, 02:35:04,VALID,1006.3,VALID,0,VALID,93.9264,VALID,0,VALID,24.5515,VALID,21,VALID,0,
2008-11-08, 02:36:04,VALID,1006.29,VALID,0,VALID,93.9798,VALID,0,VALID,24.532,VALID,21,VALID,0,
2008-11-08, 02:37:04,VALID,1006.29,VALID,0,VALID,94.0027,VALID,0,VALID,24.4911,VALID,21,VALID,0,
2008-11-08, 02:38:04,VALID,1006.25,VALID,0,VALID,94.0408,VALID,0,VALID,24.493,VALID,21,VALID,0,
2008-11-08, 02:39:04,VALID,1006.27,VALID,0,VALID,94.0865,VALID,0,VALID,24.4522,VALID,21,VALID,0,
2008-11-08, 02:40:04,VALID,1006.23,VALID,0,VALID,94.1399,VALID,0,VALID,24.4522,VALID,21,VALID,0,
2008-11-08, 02:41:04,VALID,1006.22,VALID,0,VALID,94.1552,VALID,0,VALID,24.454,VALID,21,VALID,0,
2008-11-08, 02:42:04,VALID,1006.2,VALID,0,VALID,94.2314,VALID,0,VALID,24.4522,VALID,21,VALID,0,
2008-11-08, 02:43:04,VALID,1006.2,VALID,0,VALID,94.2543,VALID,0,VALID,24.4327,VALID,21,VALID,0,
2008-11-08, 02:44:04,VALID,1006.19,VALID,0,VALID,94.2772,VALID,0,VALID,24.454,VALID,30,VALID,0,
2008-11-08, 02:45:04,VALID,1006.18,VALID,0,VALID,94.3153,VALID,0,VALID,24.4522,VALID,43,VALID,0,
2008-11-08, 02:46:04,VALID,1006.15,VALID,0,VALID,94.3534,VALID,0,VALID,24.4735,VALID,46,VALID,0,
2008-11-08, 02:47:04,VALID,1006.14,VALID,0,VALID,94.3687,VALID,0,VALID,24.4735,VALID,46,VALID,0,
2008-11-08, 02:48:04,VALID,1006.12,VALID,0,VALID,94.3992,VALID,0,VALID,24.493,VALID,46,VALID,0,
2008-11-08, 02:49:04,VALID,1006.12,VALID,0,VALID,94.3916,VALID,0,VALID,24.493,VALID,46,VALID,0,
2008-11-08, 02:50:04,VALID,1006.1,VALID,0,VALID,94.3839,VALID,0,VALID,24.493,VALID,46,VALID,0,
2008-11-08, 02:51:04,VALID,1006.08,VALID,0,VALID,94.4221,VALID,0,VALID,24.493,VALID,46,VALID,0,
2008-11-08, 02:52:04,VALID,1006.08,VALID,0,VALID,94.3992,VALID,0,VALID,24.4735,VALID,51,VALID,0,
2008-11-08, 02:53:04,VALID,1006.08,VALID,0,VALID,94.3992,VALID,0,VALID,24.493,VALID,69,VALID,0.540625,
2008-11-08, 02:54:04,VALID,1006.08,VALID,0,VALID,94.4145,VALID,0,VALID,24.5125,VALID,69,VALID,0.332031,
2008-11-08, 02:55:04,VALID,1006.06,VALID,0,VALID,94.3916,VALID,0,VALID,24.4717,VALID,69,VALID,0.236328,
2008-11-08, 02:56:04,VALID,1006.05,VALID,0,VALID,94.4068,VALID,0,VALID,24.5125,VALID,78,VALID,0.379687,
2008-11-08, 02:57:04,VALID,1006.02,VALID,0,VALID,94.3763,VALID,0,VALID,24.532,VALID,78,VALID,0.175781,
2008-11-08, 02:58:04,VALID,1006.04,VALID,0,VALID,94.3687,VALID,0,VALID,24.532,VALID,78,VALID,0.00546875,
2008-11-08, 02:59:04,VALID,1006.03,VALID,0,VALID,94.3534,VALID,0,VALID,24.532,VALID,78,VALID,0,
2008-11-08, 03:00:04,VALID,1006,VALID,0,VALID,94.3306,VALID,0,VALID,24.5125,VALID,78,VALID,0,
2008-11-08, 03:01:04,VALID,1006.01,VALID,0,VALID,94.2924,VALID,0,VALID,24.4911,VALID,78,VALID,0.00429688,
2008-11-08, 03:02:04,VALID,1006.05,VALID,0,VALID,94.2619,VALID,0,VALID,24.493,VALID,78,VALID,0.248437,
2008-11-08, 03:03:04,VALID,1006,VALID,0,VALID,94.2467,VALID,0,VALID,24.493,VALID,78,VALID,0.419922,
2008-11-08, 03:04:04,VALID,1006.02,VALID,0,VALID,94.2086,VALID,0,VALID,24.4735,VALID,75,VALID,0.364453,
2008-11-08, 03:05:04,VALID,1006.01,VALID,0,VALID,94.1781,VALID,0,VALID,24.4522,VALID,65,VALID,0.188672,
2008-11-08, 03:06:04,VALID,1006.03,VALID,0,VALID,94.1628,VALID,0,VALID,24.4345,VALID,65,VALID,0.212109,
2008-11-08, 03:07:04,VALID,1006.02,VALID,0,VALID,94.1399,VALID,0,VALID,24.4345,VALID,65,VALID,0.0238281,
2008-11-08, 03:08:04,VALID,1006,VALID,0,VALID,94.1171,VALID,0,VALID,24.3956,VALID,65,VALID,0.110156,
2008-11-08, 03:09:04,VALID,1006,VALID,0,VALID,94.1628,VALID,0,VALID,24.3956,VALID,65,VALID,0.317578,
2008-11-08, 03:10:04,VALID,1005.97,VALID,0,VALID,94.2009,VALID,0,VALID,24.4169,VALID,55,VALID,0.221484,
2008-11-08, 03:11:04,VALID,1005.97,VALID,0,VALID,94.2543,VALID,0,VALID,24.4364,VALID,55,VALID,0,
2008-11-08, 03:12:04,VALID,1005.94,VALID,0,VALID,94.2924,VALID,0,VALID,24.415,VALID,55,VALID,0,
2008-11-08, 03:13:04,VALID,1005.94,VALID,0,VALID,94.2772,VALID,0,VALID,24.4345,VALID,55,VALID,0,
2008-11-08, 03:14:04,VALID,1005.9,VALID,0,VALID,94.2696,VALID,0,VALID,24.3761,VALID,55,VALID,0,
2008-11-08, 03:15:04,VALID,1005.92,VALID,0,VALID,94.2772,VALID,0,VALID,24.3956,VALID,55,VALID,0.246484,
2008-11-08, 03:16:04,VALID,1005.91,VALID,0,VALID,94.2467,VALID,0,VALID,24.3566,VALID,55,VALID,0.262109,
2008-11-08, 03:17:04,VALID,1005.9,VALID,0,VALID,94.2314,VALID,0,VALID,24.3371,VALID,55,VALID,0.317578,
2008-11-08, 03:18:04,VALID,1005.93,VALID,0,VALID,94.2162,VALID,0,VALID,24.3176,VALID,55,VALID,0.411328,
2008-11-08, 03:19:04,VALID,1005.9,VALID,0,VALID,94.2238,VALID,0,VALID,24.3176,VALID,55,VALID,0.401563,
2008-11-08, 03:20:04,VALID,1005.93,VALID,0,VALID,94.2238,VALID,0,VALID,24.2786,VALID,55,VALID,0.261328,
2008-11-08, 03:21:04,VALID,1005.89,VALID,0,VALID,94.2391,VALID,0,VALID,24.2786,VALID,55,VALID,0.339844,
2008-11-08, 03:22:04,VALID,1005.9,VALID,0,VALID,94.2772,VALID,0,VALID,24.2786,VALID,55,VALID,0.245703,
2008-11-08, 03:23:04,VALID,1005.92,VALID,0,VALID,94.2772,VALID,0,VALID,24.2591,VALID,55,VALID,0,
2008-11-08, 03:24:04,VALID,1005.91,VALID,0,VALID,94.3229,VALID,0,VALID,24.2786,VALID,55,VALID,0,
2008-11-08, 03:25:04,VALID,1005.92,VALID,0,VALID,94.3458,VALID,0,VALID,24.2396,VALID,55,VALID,0,
2008-11-08, 03:26:04,VALID,1005.94,VALID,0,VALID,94.3992,VALID,0,VALID,24.2396,VALID,55,VALID,0,
2008-11-08, 03:27:04,VALID,1005.97,VALID,0,VALID,94.3992,VALID,0,VALID,24.2396,VALID,55,VALID,0,
2008-11-08, 03:28:04,VALID,1005.93,VALID,0,VALID,94.3839,VALID,0,VALID,24.222,VALID,55,VALID,0,
2008-11-08, 03:29:04,VALID,1005.94,VALID,0,VALID,94.3839,VALID,0,VALID,24.2007,VALID,55,VALID,0,
2008-11-08, 03:30:04,VALID,1005.99,VALID,0,VALID,94.4068,VALID,0,VALID,24.2007,VALID,55,VALID,0.428906,
2008-11-08, 03:31:04,VALID,1005.99,VALID,0,VALID,94.4373,VALID,0,VALID,24.2007,VALID,55,VALID,0.370703,
2008-11-08, 03:32:04,VALID,1006.03,VALID,0,VALID,94.445,VALID,0,VALID,24.2007,VALID,55,VALID,0.287109,
2008-11-08, 03:33:04,VALID,1006.02,VALID,0,VALID,94.4831,VALID,0,VALID,24.1812,VALID,55,VALID,0.276953,
2008-11-08, 03:34:04,VALID,1006.03,VALID,0,VALID,94.4983,VALID,0,VALID,24.1812,VALID,55,VALID,0.232422,
2008-11-08, 03:35:04,VALID,1006.04,VALID,0,VALID,94.4983,VALID,0,VALID,24.1617,VALID,55,VALID,0.178125,
2008-11-08, 03:36:04,VALID,1006.03,VALID,0,VALID,94.5212,VALID,0,VALID,24.1617,VALID,55,VALID,0.339844,
2008-11-08, 03:37:04,VALID,1006.03,VALID,0,VALID,94.5288,VALID,0,VALID,24.1812,VALID,55,VALID,0.00585938,
2008-11-08, 03:38:04,VALID,1005.99,VALID,0,VALID,94.5517,VALID,0,VALID,24.1617,VALID,70,VALID,0.266797,
2008-11-08, 03:39:04,VALID,1005.98,VALID,0,VALID,94.5746,VALID,0,VALID,24.1812,VALID,71,VALID,0.452344,
2008-11-08, 03:40:04,VALID,1005.99,VALID,0,VALID,94.5975,VALID,0,VALID,24.1812,VALID,57,VALID,0.275781,
2008-11-08, 03:41:04,VALID,1005.98,VALID,0,VALID,94.5822,VALID,0,VALID,24.1812,VALID,57,VALID,0.116797,
2008-11-08, 03:42:04,VALID,1005.99,VALID,0,VALID,94.6051,VALID,0,VALID,24.1617,VALID,57,VALID,0.301562,
2008-11-08, 03:43:04,VALID,1005.98,VALID,0,VALID,94.5898,VALID,0,VALID,24.1617,VALID,57,VALID,0.20625,
2008-11-08, 03:44:04,VALID,1005.98,VALID,0,VALID,94.567,VALID,0,VALID,24.1422,VALID,57,VALID,0.000390625,
2008-11-08, 03:45:04,VALID,1006,VALID,0,VALID,94.5975,VALID,0,VALID,24.1227,VALID,57,VALID,0,
2008-11-08, 03:46:04,VALID,1006.02,VALID,0,VALID,94.6051,VALID,0,VALID,24.1422,VALID,36,VALID,0.178125,
2008-11-08, 03:47:04,VALID,1006,VALID,0,VALID,94.6356,VALID,0,VALID,24.1422,VALID,30,VALID,0.393359,
2008-11-08, 03:48:04,VALID,1006.03,VALID,0,VALID,94.6127,VALID,0,VALID,24.1209,VALID,25,VALID,0.366406,
2008-11-08, 03:49:04,VALID,1006.02,VALID,0,VALID,94.6127,VALID,0,VALID,24.1227,VALID,25,VALID,0.328516,
2008-11-08, 03:50:04,VALID,1006.05,VALID,0,VALID,94.5975,VALID,0,VALID,24.1227,VALID,25,VALID,0.172266,
2008-11-08, 03:51:04,VALID,1006.05,VALID,0,VALID,94.6127,VALID,0,VALID,24.1032,VALID,25,VALID,0.169141,
2008-11-08, 03:52:04,VALID,1006.02,VALID,0,VALID,94.5975,VALID,0,VALID,24.1032,VALID,25,VALID,0.196875,
2008-11-08, 03:53:04,VALID,1006.05,VALID,0,VALID,94.5898,VALID,0,VALID,24.0643,VALID,25,VALID,0.106641,
2008-11-08, 03:54:04,VALID,1006.03,VALID,0,VALID,94.5517,VALID,0,VALID,24.0643,VALID,25,VALID,0.0882813,
2008-11-08, 03:55:04,VALID,1006.03,VALID,0,VALID,94.5898,VALID,0,VALID,24.0643,VALID,25,VALID,0,